TimeCDT,TemperatureF,Dew PointF,Humidity,Sea Level PressureIn,VisibilityMPH,Wind Direction,Wind SpeedMPH,Gust SpeedMPH,PrecipitationIn,Events,Conditions,WindDirDegrees,DateUTC
12:54 AM,36.0,34.0,93,29.87,5.0,East,13.8,-,0.06,Rain,Rain,80,2013-04-18 05:54:00
1:54 AM,36.0,34.0,93,29.78,10.0,East,15.0,24.2,0.00,,Overcast,100,2013-04-18 06:54:00
2:54 AM,36.0,34.0,93,29.77,10.0,East,9.2,-,N/A,,Overcast,80,2013-04-18 07:54:00
3:54 AM,36.0,35.1,97,29.78,9.0,ENE,8.1,-,N/A,,Overcast,70,2013-04-18 08:54:00
4:28 AM,35.6,35.6,100,29.70,2.0,ENE,10.4,-,N/A,,Overcast,70,2013-04-18 09:28:00
4:35 AM,35.6,35.6,100,29.70,1.5,ENE,10.4,-,N/A,,Overcast,60,2013-04-18 09:35:00
4:52 AM,35.6,35.6,100,29.69,1.0,ENE,12.7,-,N/A,,Overcast,60,2013-04-18 09:52:00
4:54 AM,35.1,35.1,100,29.72,1.0,ENE,12.7,-,N/A,,Overcast,60,2013-04-18 09:54:00
5:13 AM,35.6,35.6,100,29.67,1.2,ENE,11.5,-,N/A,,Overcast,60,2013-04-18 10:13:00
5:54 AM,35.1,34.0,96,29.69,1.8,ENE,10.4,-,N/A,,Overcast,60,2013-04-18 10:54:00
6:10 AM,35.6,33.8,93,29.66,2.0,ENE,8.1,-,0.00,,Overcast,60,2013-04-18 11:10:00
6:54 AM,35.1,34.0,96,29.71,2.0,NE,9.2,-,0.05,Rain,Light Rain,40,2013-04-18 11:54:00
7:39 AM,35.6,33.8,93,29.65,1.8,ENE,9.2,-,0.00,,Mostly Cloudy,60,2013-04-18 12:39:00
7:52 AM,35.6,33.8,93,29.66,2.5,ENE,9.2,-,0.00,,Overcast,60,2013-04-18 12:52:00
7:54 AM,35.1,34.0,96,29.70,3.0,NE,9.2,-,0.00,,Overcast,50,2013-04-18 12:54:00
8:42 AM,35.6,33.8,93,29.67,2.0,North,6.9,-,0.00,Rain,Light Rain,360,2013-04-18 13:42:00
8:54 AM,35.1,35.1,100,29.70,2.0,North,5.8,-,0.00,,Overcast,360,2013-04-18 13:54:00
9:10 AM,35.6,35.6,100,29.62,3.0,NE,9.2,-,0.00,,Overcast,40,2013-04-18 14:10:00
9:20 AM,35.6,35.6,100,29.60,4.0,NE,11.5,-,0.00,,Overcast,50,2013-04-18 14:20:00
9:54 AM,36.0,34.0,93,29.51,10.0,ENE,23.0,29.9,0.00,,Overcast,70,2013-04-18 14:54:00
10:34 AM,35.6,35.6,100,29.60,10.0,North,5.8,-,N/A,,Overcast,10,2013-04-18 15:34:00
10:54 AM,37.0,35.1,93,29.63,10.0,NNE,3.5,-,N/A,,Overcast,30,2013-04-18 15:54:00
11:54 AM,37.0,36.0,96,29.64,10.0,NNE,6.9,-,N/A,,Overcast,30,2013-04-18 16:54:00
12:54 PM,37.9,-9999,N/A,29.59,10.0,NE,8.1,-,N/A,,Overcast,40,2013-04-18 17:54:00
1:54 PM,37.0,35.1,93,29.59,10.0,NE,10.4,-,N/A,,Overcast,50,2013-04-18 18:54:00
2:39 PM,37.4,35.6,93,29.50,1.8,ENE,13.8,-,0.00,Rain,Light Rain,60,2013-04-18 19:39:00
2:48 PM,37.4,35.6,93,29.49,2.0,NE,12.7,-,0.00,Rain,Light Rain,50,2013-04-18 19:48:00
2:54 PM,37.9,36.0,93,29.52,3.0,ENE,11.5,-,0.00,,Overcast,60,2013-04-18 19:54:00
3:54 PM,37.0,36.0,96,29.47,6.0,ENE,12.7,24.2,N/A,,Overcast,60,2013-04-18 20:54:00
4:26 PM,37.4,35.6,93,29.39,1.8,East,17.3,24.2,0.01,,Overcast,80,2013-04-18 21:26:00
4:52 PM,37.4,37.4,100,29.38,2.5,East,16.1,25.3,0.01,Rain,Light Rain,90,2013-04-18 21:52:00
4:54 PM,37.0,37.0,100,29.42,2.5,East,16.1,-,0.02,Rain,Light Rain,90,2013-04-18 21:54:00
5:05 PM,37.4,37.4,100,29.37,6.0,East,17.3,24.2,0.00,Rain,Light Rain,90,2013-04-18 22:05:00
5:32 PM,37.4,37.4,100,29.35,1.8,East,13.8,24.2,0.01,Rain,Light Rain,90,2013-04-18 22:32:00
5:54 PM,37.9,37.9,100,29.37,1.5,East,15.0,20.7,0.01,Rain,Light Rain,90,2013-04-18 22:54:00
6:10 PM,37.4,37.4,100,29.32,2.0,East,13.8,21.9,0.00,Rain,Light Rain,80,2013-04-18 23:10:00
6:19 PM,37.4,37.4,100,29.32,1.5,East,11.5,-,0.01,Rain,Light Rain,100,2013-04-18 23:19:00
6:54 PM,37.9,37.9,100,29.34,1.5,East,6.9,-,0.01,Rain,Light Rain,90,2013-04-18 23:54:00
7:41 PM,37.4,37.4,100,29.31,1.2,North,5.8,-,0.03,Rain,Rain,350,2013-04-19 00:41:00
7:54 PM,37.9,37.9,100,29.34,2.5,North,4.6,-,0.04,Rain,Light Rain,360,2013-04-19 00:54:00
8:01 PM,37.4,37.4,100,29.30,3.0,North,4.6,-,0.00,Rain,Light Rain,360,2013-04-19 01:01:00
8:35 PM,37.4,37.4,100,29.30,2.5,NNW,6.9,-,0.00,,Overcast,340,2013-04-19 01:35:00
8:44 PM,37.4,37.4,100,29.30,2.5,North,6.9,-,0.00,,Overcast,360,2013-04-19 01:44:00
8:54 PM,37.0,37.0,100,29.33,2.5,North,4.6,-,0.00,,Overcast,360,2013-04-19 01:54:00
9:04 PM,37.4,37.4,100,29.29,3.0,North,5.8,-,0.00,,Overcast,10,2013-04-19 02:04:00
9:14 PM,37.4,37.4,100,29.29,3.0,North,4.6,-,0.00,,Overcast,10,2013-04-19 02:14:00
9:21 PM,37.4,37.4,100,29.29,3.0,NNE,4.6,-,0.00,,Overcast,20,2013-04-19 02:21:00
9:54 PM,37.0,37.0,100,29.32,2.5,Calm,Calm,-,0.00,,Overcast,0,2013-04-19 02:54:00
10:54 PM,35.1,35.1,100,29.29,2.5,West,4.6,-,N/A,,Overcast,260,2013-04-19 03:54:00
11:03 PM,35.6,35.6,100,29.26,3.0,SW,8.1,-,N/A,,Overcast,230,2013-04-19 04:03:00
11:54 PM,34.0,-9999,N/A,29.28,3.0,WSW,12.7,-,0.00,,Overcast,250,2013-04-19 04:54:00